This demonstration page uses our WeatherBlox Daily Observations layout. Learn more.

39.92423, -83.80882

Hourly Observations for December 10, 2019

Temp ( °F °C ) Dew Point ( °F °C ) Humidity (%) Winds ( mph kmh ) Pressure ( in mb ) Visibility ( mi km ) Precip ( " mm )
12:18 am 00:18 Cloudy with Light Rain 50 10 48 9 94 94 W 13 20 29.72 1006 10 16.0934 0.001 0.001
12:22 am 00:22 Cloudy 50 10 48 9 94 94 WNW 13 20 29.73 1007 10 16.0934 0.001 0.001
12:34 am 00:34 Cloudy 48 9 48 9 100 100 W 16 26 29.74 1007 10 16.0934 0.001 0.001
12:47 am 00:47 Cloudy 48 9 48 9 100 100 W 13 20 29.74 1007 10 16.0934 0.001 0.001
12:56 am 00:56 Cloudy 49 9.4 48 8.9 97 97 W 12 19 29.73 1007 10 16.0934 0.001 0.001
1:56 am 01:56 Cloudy 45 7.2 42 5.6 90 90 WNW 17 28 29.76 1008 10 16.0934 0 0
2:41 am 02:41 Cloudy 41 5 34 1 76 76 W 17 28 29.8 1009 10 16.0934 0 0
2:56 am 02:56 Cloudy 41 5 37 2.8 86 86 WNW 14 22 29.8 1009 10 16.0934 0 0
3:22 am 03:22 Cloudy 39 4 36 2 87 87 WNW 15 24 29.85 1011 10 16.0934 0 0
3:56 am 03:56 Partly Cloudy 36 2.2 32 0 86 86 W 21 33 29.84 1010 10 16.0934 0 0
4:32 am 04:32 Mostly Cloudy 34 1 30 -1 87 87 WNW 16 26 29.9 1012 10 16.0934 0 0
4:56 am 04:56 Cloudy 34 1.1 31 -0.6 89 89 WNW 13 20 29.87 1012 10 16.0934 0 0
5:04 am 05:04 Cloudy 34 1 30 -1 87 87 WNW 14 22 29.91 1013 10 16.0934 0 0
5:56 am 05:56 Cloudy 32 0 29 -1.7 88 88 WNW 13 20 29.91 1013 10 16.0934 0 0
6:29 am 06:29 Cloudy 30 -1 28 -2 93 93 W 16 26 29.97 1015 10 16.0934 0 0
6:56 am 06:56 Cloudy 30 -1.1 26 -3.3 85 85 WNW 17 28 29.95 1014 10 16.0934 0 0
7:35 am 07:35 Cloudy 28 -2 27 -3 93 93 WNW 12 19 30 1016 10 16.0934 0 0
7:56 am 07:56 Cloudy 29 -1.7 26 -3.3 89 89 WNW 20 31 29.98 1015 10 16.0934 0 0
8:40 am 08:40 Cloudy 28 -2 25 -4 86 86 W 25 41 30.08 1019 10 16.0934 0 0
8:56 am 08:56 Cloudy 28 -2.2 24 -4.4 85 85 WNW 20 31 30.08 1019 10 16.0934 0 0
9:56 am 09:56 Cloudy 26 -3.3 23 -5 88 88 WNW 15 24 30.12 1020 10 16.0934 0 0
10:56 am 10:56 Cloudy 25 -3.9 20 -6.7 81 81 WNW 21 33 30.13 1020 10 16.0934 0 0
11:56 am 11:56 Cloudy 25 -3.9 21 -6.1 85 85 W 18 30 30.14 1021 10 16.0934 0 0
12:56 pm 12:56 Cloudy 25 -3.9 20 -6.7 81 81 W 15 24 30.15 1021 10 16.0934 0 0
1:56 pm 13:56 Mostly Cloudy 27 -2.8 20 -6.7 75 75 W 16 26 30.14 1021 10 16.0934 0 0
2:56 pm 14:56 Partly Cloudy 27 -2.8 19 -7.2 72 72 WNW 15 24 30.17 1022 10 16.0934 0 0
3:16 pm 15:16 Mostly Cloudy 27 -3 19 -7 74 74 W 16 26 30.23 1024 10 16.0934 0 0
3:27 pm 15:27 Partly Cloudy 27 -3 19 -7 74 74 W 12 19 30.24 1024 10 16.0934 0 0
3:35 pm 15:35 Mostly Cloudy 27 -3 19 -7 74 74 W 12 19 30.23 1024 10 16.0934 0 0
3:49 pm 15:49 Partly Cloudy 27 -3 19 -7 74 74 W 10 17 30.24 1024 10 16.0934 0 0
3:56 pm 15:56 Mostly Cloudy 26 -3.3 20 -6.7 78 78 W 10 17 30.22 1023 10 16.0934 0 0
4:56 pm 16:56 Mostly Cloudy 26 -3.3 19 -7.2 75 75 W 16 26 30.26 1025 10 16.0934 0 0
5:10 pm 17:10 Partly Cloudy 25 -4 18 -8 74 74 W 14 22 30.29 1026 10 16.0934 0 0
5:56 pm 17:56 Clear 25 -3.9 16 -8.9 69 69 W 12 19 30.28 1025 10 16.0934 0 0
6:56 pm 18:56 Clear 24 -4.4 16 -8.9 71 71 WSW 10 17 30.33 1027 10 16.0934 0 0
7:56 pm 19:56 Clear 23 -5 15 -9.4 72 72 W 10 17 30.35 1028 10 16.0934 0 0
8:56 pm 20:56 Clear 23 -5 15 -9.4 72 72 W 10 17 30.35 1028 10 16.0934 0 0
9:56 pm 21:56 Clear 22 -5.6 16 -8.9 78 78 W 9 15 30.37 1028 10 16.0934 0 0
10:56 pm 22:56 Clear 22 -5.6 16 -8.9 78 78 WSW 9 15 30.37 1028 10 16.0934 0 0
11:56 pm 23:56 Clear 21 -6.1 15 -9.4 78 78 W 9 15 30.37 1028 10 16.0934 0 0

Powered by AerisWeather